Volver al catálogo

FENGYUN 1C DEB

ActivoSSO
NORAD 31819·DEBRIS·🇨🇳 China

Lanzado May 10, 1999 desde Taiyuan Satellite Launch Center

Loading…

Próximos Pases (próximas 24 horas)

TLE

EnvejeciendoSource: Space-Track

Época: Sep 9, 2026, 18:35 UTC

1 31819U 99025CHH 26252.77463409  .00000426  00000-0  17283-3 0  9990
2 31819  98.4939 242.4795 0085586 239.9709 119.2963 14.30633680  5527

Sigue FENGYUN 1C DEB en tiempo real con AllMySat

Download on the App Store